Total_Precipitation_Accumulation
0.37 0.15 0.10 0.09 0.09 0.14 0.15 0.17 0.20 0.19 0.17 0.15 0.14 0.13 0.12 0.13 0.13 0.12 0.10 0.11 0.16 0.27 0.35 0.38 0.41 0.46 0.47 0.46 0.39 0.30 0.24 0.19 0.17 0.17 0.19 0.22 0.30 0.38 0.40 0.36 0.47 0.52 0.34
0.30 0.12 0.09 0.09 0.08 0.11 0.14 0.19 0.21 0.20 0.19 0.17 0.14 0.12 0.13 0.12 0.13 0.15 0.14 0.15 0.22 0.28 0.30 0.33 0.35 0.37 0.35 0.32 0.26 0.20 0.16 0.18 0.23 0.30 0.36 0.42 0.55 0.63 0.65 0.56 0.70 0.68 0.31
0.21 0.11 0.07 0.08 0.08 0.09 0.13 0.17 0.21 0.20 0.19 0.17 0.17 0.16 0.16 0.15 0.15 0.17 0.17 0.19 0.26 0.29 0.27 0.26 0.28 0.27 0.24 0.19 0.16 0.16 0.18 0.24 0.40 0.56 0.88 1.06 0.96 0.81 0.70 0.61 0.54 0.44 0.30
0.19 0.15 0.09 0.08 0.09 0.09 0.11 0.14 0.19 0.21 0.23 0.23 0.24 0.20 0.17 0.17 0.18 0.18 0.18 0.20 0.24 0.25 0.23 0.21 0.20 0.18 0.16 0.14 0.14 0.17 0.22 0.32 0.59 0.89 1.46 1.40 1.41 1.21 0.82 0.63 0.54 0.45 0.41
0.20 0.20 0.15 0.12 0.11 0.11 0.10 0.14 0.21 0.25 0.26 0.27 0.28 0.24 0.20 0.17 0.17 0.19 0.24 0.27 0.28 0.28 0.29 0.28 0.22 0.16 0.13 0.14 0.16 0.21 0.28 0.41 0.70 1.07 1.57 1.83 2.02 1.75 1.04 0.73 0.62 0.57 0.56
0.20 0.19 0.17 0.19 0.16 0.14 0.14 0.16 0.23 0.29 0.30 0.28 0.28 0.27 0.25 0.21 0.20 0.24 0.31 0.35 0.34 0.33 0.37 0.41 0.35 0.26 0.19 0.17 0.19 0.24 0.35 0.55 0.73 1.05 1.69 2.12 2.11 1.77 1.15 0.87 0.71 0.72 0.75
0.27 0.25 0.25 0.27 0.26 0.23 0.21 0.25 0.31 0.35 0.37 0.37 0.35 0.33 0.33 0.27 0.24 0.30 0.38 0.41 0.41 0.39 0.39 0.36 0.30 0.25 0.22 0.21 0.23 0.28 0.39 0.59 0.74 1.18 1.68 2.07 2.01 1.70 1.28 1.06 0.94 0.86 0.81
0.41 0.33 0.34 0.35 0.39 0.41 0.39 0.40 0.41 0.38 0.39 0.40 0.40 0.40 0.37 0.30 0.27 0.31 0.39 0.47 0.53 0.49 0.42 0.35 0.28 0.23 0.22 0.22 0.23 0.27 0.40 0.54 0.60 1.00 1.48 1.72 1.63 1.44 1.34 1.20 1.11 0.96 0.87
0.67 0.57 0.48 0.46 0.47 0.48 0.49 0.49 0.49 0.47 0.44 0.42 0.42 0.41 0.40 0.37 0.32 0.37 0.45 0.50 0.50 0.44 0.40 0.36 0.31 0.26 0.23 0.21 0.22 0.28 0.40 0.55 0.66 0.93 1.24 1.56 1.44 1.47 1.53 1.32 1.12 1.03 0.99
1.20 1.42 0.98 0.69 0.61 0.54 0.52 0.56 0.60 0.61 0.59 0.52 0.47 0.41 0.40 0.41 0.42 0.48 0.50 0.51 0.48 0.42 0.37 0.36 0.33 0.29 0.25 0.23 0.26 0.31 0.40 0.43 0.47 0.80 1.23 1.42 1.42 1.57 1.77 1.62 1.35 1.17 1.06
1.49 1.77 1.26 0.96 0.86 0.80 0.78 0.71 0.75 0.76 0.72 0.66 0.61 0.55 0.55 0.64 0.81 0.86 0.67 0.68 0.56 0.48 0.44 0.43 0.38 0.35 0.33 0.31 0.36 0.40 0.39 0.39 0.68 0.99 1.27 1.44 1.56 1.77 1.90 1.80 1.52 1.29 1.16
1.62 1.49 1.48 1.43 1.22 1.07 1.05 1.13 1.11 0.98 0.94 0.86 0.95 0.82 0.88 1.23 1.35 1.16 1.11 0.97 0.80 0.67 0.59 0.57 0.57 0.50 0.43 0.44 0.56 0.55 0.48 0.57 0.82 1.22 1.42 1.43 1.56 1.86 2.04 1.87 1.64 1.51 1.38
2.24 1.74 1.63 1.59 1.50 1.37 1.48 1.59 1.57 1.47 1.43 1.28 1.36 1.24 1.32 1.45 1.40 1.40 1.45 1.29 1.18 1.03 1.03 1.05 0.87 0.70 0.66 0.73 0.77 0.75 0.74 0.79 0.94 1.20 1.42 1.51 1.63 1.91 2.12 1.99 1.73 1.67 1.63
2.52 2.25 1.81 1.79 1.82 1.97 2.02 1.92 1.83 1.85 1.82 1.71 1.74 1.58 1.68 1.79 1.82 1.74 1.84 1.74 1.74 1.62 1.61 1.45 1.31 1.13 1.01 0.89 0.86 0.89 0.94 0.96 1.03 1.24 1.59 1.64 1.64 1.86 2.13 2.14 1.97 1.88 1.85
2.53 2.31 2.08 2.17 2.19 2.21 2.24 2.31 2.18 2.13 2.28 2.25 2.25 2.12 2.11 2.05 1.99 1.97 1.97 2.02 1.93 2.00 2.00 1.89 1.63 1.44 1.29 1.13 0.98 1.03 1.15 1.14 1.25 1.38 1.64 1.68 1.55 1.70 2.06 2.35 2.37 2.37 2.33
2.45 2.48 2.42 2.56 2.39 2.32 2.45 2.63 2.58 2.41 2.57 2.75 2.89 2.79 2.53 2.41 2.33 2.33 2.43 2.41 2.16 2.13 2.21 2.22 2.05 1.84 1.57 1.36 1.19 1.16 1.17 1.18 1.30 1.47 1.68 1.82 1.76 1.67 2.00 2.43 2.61 2.70 2.67
2.57 2.53 2.63 2.53 2.67 2.77 2.88 2.86 2.79 2.76 2.84 2.97 3.09 3.15 2.86 2.60 2.65 2.62 2.76 2.74 2.40 2.29 2.40 2.50 2.44 2.26 1.87 1.59 1.49 1.45 1.40 1.44 1.44 1.56 1.75 1.89 1.90 1.84 1.95 2.09 2.27 2.44 2.57
2.58 2.90 2.90 2.57 2.85 2.99 3.02 3.01 2.87 2.92 3.13 3.26 3.24 3.30 3.11 2.77 2.68 2.77 2.70 2.54 2.47 2.52 2.73 2.91 2.82 2.70 2.42 2.15 1.98 1.76 1.61 1.61 1.56 1.73 1.79 1.86 2.14 2.09 2.00 1.82 1.89 2.08 2.31
2.84 3.26 3.04 2.69 2.83 2.96 3.11 3.22 3.03 3.05 3.35 3.54 3.57 3.40 3.06 2.79 2.79 2.95 2.98 2.93 2.87 2.89 2.95 2.86 3.00 2.83 2.83 2.64 2.21 1.97 1.79 1.72 1.80 1.86 1.92 1.94 2.06 2.18 2.14 1.92 1.82 1.91 2.02
3.14 3.64 3.26 2.81 2.85 3.13 3.18 3.11 3.12 3.24 3.51 3.77 3.68 3.43 3.20 3.16 3.14 3.23 3.21 3.26 3.31 3.35 3.18 3.08 3.06 2.88 2.75 2.66 2.30 2.13 1.99 1.86 1.83 1.82 1.76 1.80 1.89 1.86 1.94 1.93 1.97 1.84 1.88
3.11 3.39 3.33 3.13 3.17 3.30 3.36 3.16 3.33 3.56 3.83 4.06 3.96 3.84 3.78 3.74 3.71 3.70 3.72 3.70 3.58 3.49 3.34 3.14 2.99 2.89 2.70 2.50 2.43 2.14 1.83 1.61 1.55 1.52 1.56 1.64 1.63 1.60 1.70 1.87 1.96 1.92 1.80
2.86 3.01 3.26 3.36 3.38 3.22 3.52 3.73 3.94 4.26 4.40 4.64 4.87 4.95 4.84 4.59 4.37 4.14 4.07 3.90 3.60 3.43 3.30 3.10 2.95 2.81 2.56 2.41 2.37 2.34 1.97 1.69 1.42 1.26 1.34 1.36 1.42 1.54 1.61 1.58 1.61 1.62 1.59
2.71 2.95 3.23 3.50 3.58 3.49 3.88 4.40 4.81 5.11 5.11 5.19 5.24 5.30 5.26 4.82 4.43 4.11 3.83 3.67 3.49 3.31 3.15 3.06 2.94 2.81 2.60 2.42 2.32 2.44 2.32 2.04 1.67 1.48 1.35 1.36 1.43 1.48 1.47 1.42 1.38 1.38 1.42
2.50 2.77 3.03 3.34 3.71 4.00 4.41 4.89 5.46 5.73 5.84 5.76 5.47 5.22 4.89 4.45 4.06 3.62 3.40 3.39 3.25 3.05 2.88 2.67 2.53 2.47 2.42 2.33 2.27 2.16 2.12 2.07 1.93 1.76 1.57 1.55 1.56 1.55 1.48 1.42 1.48 1.52 1.51
2.28 2.54 2.83 3.12 3.51 4.16 4.93 5.47 5.85 6.12 6.09 5.69 5.20 4.61 4.16 3.80 3.48 3.21 3.02 3.04 2.96 2.71 2.48 2.25 2.06 1.99 1.99 2.06 2.07 2.02 1.95 1.91 1.77 1.69 1.65 1.58 1.55 1.53 1.45 1.41 1.45 1.52 1.51
2.00 2.23 2.55 2.94 3.25 3.78 4.52 5.13 5.43 5.65 5.59 5.22 4.60 4.07 3.68 3.28 2.95 2.66 2.40 2.28 2.16 2.00 1.90 1.81 1.70 1.65 1.64 1.74 1.80 1.77 1.76 1.77 1.75 1.74 1.71 1.59 1.58 1.64 1.51 1.38 1.32 1.29 1.30